owner,sensor,date,latitude,longitude,vertical_datum,sea_water_temperature,qcFlag
Murphy,ioos:station:wmo:42925:1,2022-06-01T00:06:00Z,28.2425,-88.8270,18.0,27.5,11111222
Murphy,ioos:station:wmo:42925:1,2022-06-01T00:16:00Z,28.2425,-88.8270,17.9,27.5,11111222
Murphy,ioos:station:wmo:42925:1,2022-06-01T00:26:00Z,28.2425,-88.8270,17.9,27.5,11111222
Murphy,ioos:station:wmo:42925:1,2022-06-01T00:36:00Z,28.2425,-88.8270,17.7,27.5,11111222
Murphy,ioos:station:wmo:42925:1,2022-06-01T00:46:00Z,28.2425,-88.8270,17.7,27.5,11111222
Murphy,ioos:station:wmo:42925:1,2022-06-01T00:56:00Z,28.2425,-88.8270,17.8,27.5,11111222
Murphy,ioos:station:wmo:42925:1,2022-06-01T01:06:00Z,28.2425,-88.8270,17.8,27.4,11111222
Murphy,ioos:station:wmo:42925:1,2022-06-01T01:16:00Z,28.2425,-88.8270,17.8,27.4,11111222
Murphy,ioos:station:wmo:42925:1,2022-06-01T01:26:00Z,28.2425,-88.8270,17.7,27.4,11111222
Murphy,ioos:station:wmo:42925:1,2022-06-01T01:36:00Z,28.2425,-88.8270,17.5,27.4,11111222
Murphy,ioos:station:wmo:42925:1,2022-06-01T01:46:00Z,28.2425,-88.8270,17.3,27.4,11111222
Murphy,ioos:station:wmo:42925:1,2022-06-01T01:57:00Z,28.2425,-88.8270,17.5,27.3,11111222
Murphy,ioos:station:wmo:42925:1,2022-06-01T02:07:00Z,28.2425,-88.8270,17.3,27.3,11111222
Murphy,ioos:station:wmo:42925:1,2022-06-01T02:17:00Z,28.2425,-88.8270,17.2,27.3,11111222
Murphy,ioos:station:wmo:42925:1,2022-06-01T02:27:00Z,28.2425,-88.8270,17.5,27.3,11111222
Murphy,ioos:station:wmo:42925:1,2022-06-01T02:37:00Z,28.2425,-88.8270,17.5,27.3,11111222
Murphy,ioos:station:wmo:42925:1,2022-06-01T02:47:00Z,28.2425,-88.8270,17.5,27.3,11111222
Murphy,ioos:station:wmo:42925:1,2022-06-01T02:57:00Z,28.2425,-88.8270,17.6,27.3,11111222
Murphy,ioos:station:wmo:42925:1,2022-06-01T03:07:00Z,28.2425,-88.8270,17.7,27.3,11111222
Murphy,ioos:station:wmo:42925:1,2022-06-01T03:17:00Z,28.2425,-88.8270,17.5,27.3,11111222
Murphy,ioos:station:wmo:42925:1,2022-06-01T03:27:00Z,28.2425,-88.8270,17.7,27.3,11111222
Murphy,ioos:station:wmo:42925:1,2022-06-01T03:37:00Z,28.2425,-88.8270,17.7,27.3,11111222
Murphy,ioos:station:wmo:42925:1,2022-06-01T03:47:00Z,28.2425,-88.8270,17.7,27.3,11111222
Murphy,ioos:station:wmo:42925:1,2022-06-01T03:57:00Z,28.2425,-88.8270,17.5,27.2,11111222
Murphy,ioos:station:wmo:42925:1,2022-06-01T04:07:00Z,28.2425,-88.8270,17.6,27.3,11111222
Murphy,ioos:station:wmo:42925:1,2022-06-01T04:17:00Z,28.2425,-88.8270,17.5,27.3,11111222
Murphy,ioos:station:wmo:42925:1,2022-06-01T04:27:00Z,28.2425,-88.8270,17.7,27.3,11111222
Murphy,ioos:station:wmo:42925:1,2022-06-01T04:37:00Z,28.2425,-88.8270,17.7,27.3,11111222
Murphy,ioos:station:wmo:42925:1,2022-06-01T04:47:00Z,28.2425,-88.8270,17.7,27.3,11111222
Murphy,ioos:station:wmo:42925:1,2022-06-01T04:57:00Z,28.2425,-88.8270,17.7,27.3,11111222
Murphy,ioos:station:wmo:42925:1,2022-06-01T05:07:00Z,28.2425,-88.8270,17.7,27.3,11111222
Murphy,ioos:station:wmo:42925:1,2022-06-01T05:17:00Z,28.2425,-88.8270,17.7,27.4,11111222
Murphy,ioos:station:wmo:42925:1,2022-06-01T05:27:00Z,28.2425,-88.8270,17.6,27.4,11111222
Murphy,ioos:station:wmo:42925:1,2022-06-01T05:37:00Z,28.2425,-88.8270,17.6,27.3,11111222
Murphy,ioos:station:wmo:42925:1,2022-06-01T05:47:00Z,28.2425,-88.8270,17.6,27.3,11111222
Murphy,ioos:station:wmo:42925:1,2022-06-01T05:57:00Z,28.2425,-88.8270,17.6,27.4,11111222
Murphy,ioos:station:wmo:42925:1,2022-06-01T06:07:00Z,28.2425,-88.8270,17.7,27.3,11111222
Murphy,ioos:station:wmo:42925:1,2022-06-01T06:17:00Z,28.2425,-88.8270,17.7,27.4,11111222
Murphy,ioos:station:wmo:42925:1,2022-06-01T06:27:00Z,28.2425,-88.8270,17.6,27.4,11111222
Murphy,ioos:station:wmo:42925:1,2022-06-01T06:37:00Z,28.2425,-88.8270,17.6,27.4,11111222
Murphy,ioos:station:wmo:42925:1,2022-06-01T06:47:00Z,28.2425,-88.8270,17.6,27.4,11111222
Murphy,ioos:station:wmo:42925:1,2022-06-01T06:57:00Z,28.2425,-88.8270,17.6,27.4,11111222
Murphy,ioos:station:wmo:42925:1,2022-06-01T07:07:00Z,28.2425,-88.8270,17.6,27.4,11111222
Murphy,ioos:station:wmo:42925:1,2022-06-01T07:17:00Z,28.2425,-88.8270,17.7,27.3,11111222
Murphy,ioos:station:wmo:42925:1,2022-06-01T07:27:00Z,28.2425,-88.8270,17.7,27.3,11111222
Murphy,ioos:station:wmo:42925:1,2022-06-01T07:37:00Z,28.2425,-88.8270,17.7,27.2,11111222
Murphy,ioos:station:wmo:42925:1,2022-06-01T07:47:00Z,28.2425,-88.8270,17.8,27.2,11111222
Murphy,ioos:station:wmo:42925:1,2022-06-01T07:57:00Z,28.2425,-88.8270,17.8,27.2,11111222
Murphy,ioos:station:wmo:42925:1,2022-06-01T08:07:00Z,28.2425,-88.8270,17.8,27.2,11111222
Murphy,ioos:station:wmo:42925:1,2022-06-01T08:17:00Z,28.2425,-88.8270,17.8,27.2,11111222
Murphy,ioos:station:wmo:42925:1,2022-06-01T08:27:00Z,28.2425,-88.8270,17.8,27.1,11111222
Murphy,ioos:station:wmo:42925:1,2022-06-01T08:37:00Z,28.2425,-88.8270,17.8,27.1,11111222
Murphy,ioos:station:wmo:42925:1,2022-06-01T08:47:00Z,28.2425,-88.8270,17.8,27.1,11111222
Murphy,ioos:station:wmo:42925:1,2022-06-01T08:57:00Z,28.2425,-88.8270,17.8,27.1,11111222
Murphy,ioos:station:wmo:42925:1,2022-06-01T09:07:00Z,28.2425,-88.8270,17.8,27.0,11111222
Murphy,ioos:station:wmo:42925:1,2022-06-01T09:18:00Z,28.2425,-88.8270,17.8,27.0,11111222
Murphy,ioos:station:wmo:42925:1,2022-06-01T09:28:00Z,28.2425,-88.8270,17.8,27.0,11111222
Murphy,ioos:station:wmo:42925:1,2022-06-01T09:38:00Z,28.2425,-88.8270,17.8,27.1,11111222
Murphy,ioos:station:wmo:42925:1,2022-06-01T09:48:00Z,28.2425,-88.8270,17.8,27.0,11111222
Murphy,ioos:station:wmo:42925:1,2022-06-01T09:58:00Z,28.2425,-88.8270,17.8,27.1,11111222
Murphy,ioos:station:wmo:42925:1,2022-06-01T10:08:00Z,28.2425,-88.8270,17.8,27.1,11111222
Murphy,ioos:station:wmo:42925:1,2022-06-01T10:18:00Z,28.2425,-88.8270,17.8,27.1,11111222
Murphy,ioos:station:wmo:42925:1,2022-06-01T10:28:00Z,28.2425,-88.8270,17.8,27.1,11111222
Murphy,ioos:station:wmo:42925:1,2022-06-01T10:38:00Z,28.2425,-88.8270,17.8,27.1,11111222
Murphy,ioos:station:wmo:42925:1,2022-06-01T10:48:00Z,28.2425,-88.8270,17.9,27.1,11111222
Murphy,ioos:station:wmo:42925:1,2022-06-01T10:58:00Z,28.2425,-88.8270,17.9,27.2,11111222
Murphy,ioos:station:wmo:42925:1,2022-06-01T11:08:00Z,28.2425,-88.8270,17.9,27.4,11111222
Murphy,ioos:station:wmo:42925:1,2022-06-01T11:18:00Z,28.2425,-88.8270,17.9,27.6,11111222
Murphy,ioos:station:wmo:42925:1,2022-06-01T11:28:00Z,28.2425,-88.8270,17.8,27.5,11111222
Murphy,ioos:station:wmo:42925:1,2022-06-01T11:38:00Z,28.2425,-88.8270,17.9,27.5,11111222
Murphy,ioos:station:wmo:42925:1,2022-06-01T11:48:00Z,28.2425,-88.8270,17.8,27.4,11111222
Murphy,ioos:station:wmo:42925:1,2022-06-01T11:58:00Z,28.2425,-88.8270,17.8,27.3,11111222
Murphy,ioos:station:wmo:42925:1,2022-06-01T12:08:00Z,28.2425,-88.8270,17.9,27.3,11111222
Murphy,ioos:station:wmo:42925:1,2022-06-01T12:18:00Z,28.2425,-88.8270,17.9,27.4,11111222
Murphy,ioos:station:wmo:42925:1,2022-06-01T12:28:00Z,28.2425,-88.8270,17.9,27.3,11111222
Murphy,ioos:station:wmo:42925:1,2022-06-01T12:38:00Z,28.2425,-88.8270,17.9,27.3,11111222
Murphy,ioos:station:wmo:42925:1,2022-06-01T12:48:00Z,28.2425,-88.8270,17.9,27.3,11111222
Murphy,ioos:station:wmo:42925:1,2022-06-01T12:58:00Z,28.2425,-88.8270,17.9,27.4,11111222
Murphy,ioos:station:wmo:42925:1,2022-06-01T13:08:00Z,28.2425,-88.8270,17.9,27.5,11111222
Murphy,ioos:station:wmo:42925:1,2022-06-01T13:18:00Z,28.2425,-88.8270,17.9,27.5,11111222
Murphy,ioos:station:wmo:42925:1,2022-06-01T13:28:00Z,28.2425,-88.8270,17.9,27.5,11111222
Murphy,ioos:station:wmo:42925:1,2022-06-01T13:38:00Z,28.2425,-88.8270,17.9,27.6,11111222
Murphy,ioos:station:wmo:42925:1,2022-06-01T13:48:00Z,28.2425,-88.8270,17.9,27.5,11111222
Murphy,ioos:station:wmo:42925:1,2022-06-01T13:58:00Z,28.2425,-88.8270,17.9,27.6,11111222
Murphy,ioos:station:wmo:42925:1,2022-06-01T14:08:00Z,28.2425,-88.8270,17.9,27.6,11111222
Murphy,ioos:station:wmo:42925:1,2022-06-01T14:18:00Z,28.2425,-88.8270,17.9,27.4,11111222
Murphy,ioos:station:wmo:42925:1,2022-06-01T14:28:00Z,28.2425,-88.8270,17.9,27.4,11111222
Murphy,ioos:station:wmo:42925:1,2022-06-01T14:38:00Z,28.2425,-88.8270,17.9,27.6,11111222
Murphy,ioos:station:wmo:42925:1,2022-06-01T14:48:00Z,28.2425,-88.8270,17.9,27.4,11111222
Murphy,ioos:station:wmo:42925:1,2022-06-01T14:58:00Z,28.2425,-88.8270,18.0,27.5,11111222
Murphy,ioos:station:wmo:42925:1,2022-06-01T15:08:00Z,28.2425,-88.8270,18.0,27.6,11111222
Murphy,ioos:station:wmo:42925:1,2022-06-01T15:18:00Z,28.2425,-88.8270,17.8,27.6,11111222
Murphy,ioos:station:wmo:42925:1,2022-06-01T15:28:00Z,28.2425,-88.8270,17.9,27.5,11111222
Murphy,ioos:station:wmo:42925:1,2022-06-01T15:38:00Z,28.2425,-88.8270,17.9,27.6,11111222
Murphy,ioos:station:wmo:42925:1,2022-06-01T15:48:00Z,28.2425,-88.8270,17.9,27.6,11111222
Murphy,ioos:station:wmo:42925:1,2022-06-01T15:58:00Z,28.2425,-88.8270,17.7,27.5,11111222
Murphy,ioos:station:wmo:42925:1,2022-06-01T16:08:00Z,28.2425,-88.8270,17.8,27.5,11111222
Murphy,ioos:station:wmo:42925:1,2022-06-01T16:18:00Z,28.2425,-88.8270,18.1,27.5,11111222
Murphy,ioos:station:wmo:42925:1,2022-06-01T16:28:00Z,28.2425,-88.8270,18.1,27.5,11111222
Murphy,ioos:station:wmo:42925:1,2022-06-01T16:39:00Z,28.2425,-88.8270,18.1,27.5,11111222
Murphy,ioos:station:wmo:42925:1,2022-06-01T16:49:00Z,28.2425,-88.8270,18.1,27.5,11111222
Murphy,ioos:station:wmo:42925:1,2022-06-01T16:59:00Z,28.2425,-88.8270,18.1,27.6,11111222
Murphy,ioos:station:wmo:42925:1,2022-06-01T17:09:00Z,28.2425,-88.8270,18.0,27.5,11111222
Murphy,ioos:station:wmo:42925:1,2022-06-01T17:19:00Z,28.2425,-88.8270,18.0,27.5,11111222
Murphy,ioos:station:wmo:42925:1,2022-06-01T17:29:00Z,28.2425,-88.8270,18.0,27.5,11111222
Murphy,ioos:station:wmo:42925:1,2022-06-01T17:39:00Z,28.2425,-88.8270,18.0,27.5,11111222
Murphy,ioos:station:wmo:42925:1,2022-06-01T17:49:00Z,28.2425,-88.8270,18.0,27.5,11111222
Murphy,ioos:station:wmo:42925:1,2022-06-01T17:59:00Z,28.2425,-88.8270,18.0,27.5,11111222
Murphy,ioos:station:wmo:42925:1,2022-06-01T18:09:00Z,28.2425,-88.8270,17.9,27.5,11111222
Murphy,ioos:station:wmo:42925:1,2022-06-01T18:19:00Z,28.2425,-88.8270,18.0,27.4,11111222
Murphy,ioos:station:wmo:42925:1,2022-06-01T18:29:00Z,28.2425,-88.8270,18.0,27.4,11111222
Murphy,ioos:station:wmo:42925:1,2022-06-01T18:39:00Z,28.2425,-88.8270,18.0,27.6,11111222
Murphy,ioos:station:wmo:42925:1,2022-06-01T18:49:00Z,28.2425,-88.8270,18.0,27.4,11111222
Murphy,ioos:station:wmo:42925:1,2022-06-01T18:59:00Z,28.2425,-88.8270,18.0,27.5,11111222
Murphy,ioos:station:wmo:42925:1,2022-06-01T19:09:00Z,28.2425,-88.8270,18.0,27.5,11111222
Murphy,ioos:station:wmo:42925:1,2022-06-01T19:19:00Z,28.2425,-88.8270,18.0,27.4,11111222
Murphy,ioos:station:wmo:42925:1,2022-06-01T19:29:00Z,28.2425,-88.8270,18.0,27.6,11111222
Murphy,ioos:station:wmo:42925:1,2022-06-01T19:39:00Z,28.2425,-88.8270,18.0,27.6,11111222
Murphy,ioos:station:wmo:42925:1,2022-06-01T19:49:00Z,28.2425,-88.8270,18.0,27.5,11111222
Murphy,ioos:station:wmo:42925:1,2022-06-01T19:59:00Z,28.2425,-88.8270,18.0,27.5,11111222
Murphy,ioos:station:wmo:42925:1,2022-06-01T20:09:00Z,28.2425,-88.8270,18.0,27.5,11111222
Murphy,ioos:station:wmo:42925:1,2022-06-01T20:19:00Z,28.2425,-88.8270,18.0,27.5,11111222
Murphy,ioos:station:wmo:42925:1,2022-06-01T20:29:00Z,28.2425,-88.8270,18.0,27.5,11111222
Murphy,ioos:station:wmo:42925:1,2022-06-01T20:39:00Z,28.2425,-88.8270,18.0,27.5,11111222
Murphy,ioos:station:wmo:42925:1,2022-06-01T20:49:00Z,28.2425,-88.8270,18.0,27.5,11111222
Murphy,ioos:station:wmo:42925:1,2022-06-01T20:59:00Z,28.2425,-88.8270,17.9,27.5,11111222
Murphy,ioos:station:wmo:42925:1,2022-06-01T21:09:00Z,28.2425,-88.8270,17.9,27.5,11111222
Murphy,ioos:station:wmo:42925:1,2022-06-01T21:19:00Z,28.2425,-88.8270,18.0,27.5,11111222
Murphy,ioos:station:wmo:42925:1,2022-06-01T21:29:00Z,28.2425,-88.8270,17.9,27.6,11111222
Murphy,ioos:station:wmo:42925:1,2022-06-01T21:39:00Z,28.2425,-88.8270,17.8,27.6,11111222
Murphy,ioos:station:wmo:42925:1,2022-06-01T21:49:00Z,28.2425,-88.8270,17.8,27.6,11111222
Murphy,ioos:station:wmo:42925:1,2022-06-01T21:59:00Z,28.2425,-88.8270,17.5,27.4,11111222
Murphy,ioos:station:wmo:42925:1,2022-06-01T22:09:00Z,28.2425,-88.8270,17.7,27.4,11111222
Murphy,ioos:station:wmo:42925:1,2022-06-01T22:19:00Z,28.2425,-88.8270,17.7,27.5,11111222
Murphy,ioos:station:wmo:42925:1,2022-06-01T22:29:00Z,28.2425,-88.8270,17.8,27.4,11111222
Murphy,ioos:station:wmo:42925:1,2022-06-01T22:39:00Z,28.2425,-88.8270,17.7,27.4,11111222
Murphy,ioos:station:wmo:42925:1,2022-06-01T22:49:00Z,28.2425,-88.8270,17.8,27.5,11111222
Murphy,ioos:station:wmo:42925:1,2022-06-01T22:59:00Z,28.2425,-88.8270,17.8,27.5,11111222
Murphy,ioos:station:wmo:42925:1,2022-06-01T23:09:00Z,28.2425,-88.8270,17.9,27.4,11111222
Murphy,ioos:station:wmo:42925:1,2022-06-01T23:19:00Z,28.2425,-88.8270,17.8,27.4,11111222
Murphy,ioos:station:wmo:42925:1,2022-06-01T23:29:00Z,28.2425,-88.8270,17.8,27.4,11111222
Murphy,ioos:station:wmo:42925:1,2022-06-14T01:51:00Z,28.2425,-88.8270,17.8,28.2,11111222
Murphy,ioos:station:wmo:42925:1,2022-06-14T02:01:00Z,28.2425,-88.8270,17.7,28.2,11111222
Murphy,ioos:station:wmo:42925:1,2022-06-14T02:20:00Z,28.2425,-88.8270,17.8,28.2,11111222
Murphy,ioos:station:wmo:42925:1,2022-06-14T02:30:00Z,28.2425,-88.8270,17.9,28.1,11111222
Murphy,ioos:station:wmo:42925:1,2022-06-14T02:40:00Z,28.2425,-88.8270,17.8,28.1,11111222
Murphy,ioos:station:wmo:42925:1,2022-06-14T02:50:00Z,28.2425,-88.8270,17.8,28.1,11111222
Murphy,ioos:station:wmo:42925:1,2022-06-14T03:00:00Z,28.2425,-88.8270,17.8,28.1,11111222
Murphy,ioos:station:wmo:42925:1,2022-06-14T03:10:00Z,28.2425,-88.8270,17.6,28.0,11111222
Murphy,ioos:station:wmo:42925:1,2022-06-14T03:20:00Z,28.2425,-88.8270,17.6,28.0,11111222
Murphy,ioos:station:wmo:42925:1,2022-06-14T03:30:00Z,28.2425,-88.8270,17.6,28.0,11111222
Murphy,ioos:station:wmo:42925:1,2022-06-14T03:40:00Z,28.2425,-88.8270,17.6,28.0,11111222
Murphy,ioos:station:wmo:42925:1,2022-06-14T03:50:00Z,28.2425,-88.8270,17.6,28.1,11111222
Murphy,ioos:station:wmo:42925:1,2022-06-14T04:00:00Z,28.2425,-88.8270,17.5,28.1,11111222
Murphy,ioos:station:wmo:42925:1,2022-06-14T04:10:00Z,28.2425,-88.8270,17.7,28.1,11111222
Murphy,ioos:station:wmo:42925:1,2022-06-14T04:20:00Z,28.2425,-88.8270,17.6,28.1,11111222
Murphy,ioos:station:wmo:42925:1,2022-06-14T04:30:00Z,28.2425,-88.8270,17.7,28.0,11111222
Murphy,ioos:station:wmo:42925:1,2022-06-14T04:55:00Z,28.2425,-88.8270,17.7,28.1,11111222
Murphy,ioos:station:wmo:42925:1,2022-06-14T05:05:00Z,28.2425,-88.8270,17.7,28.1,11111222
Murphy,ioos:station:wmo:42925:1,2022-06-14T05:15:00Z,28.2425,-88.8270,17.7,28.0,11111222
Murphy,ioos:station:wmo:42925:1,2022-06-14T05:25:00Z,28.2425,-88.8270,17.6,28.1,11111222
Murphy,ioos:station:wmo:42925:1,2022-06-14T05:35:00Z,28.2425,-88.8270,17.7,28.1,11111222
Murphy,ioos:station:wmo:42925:1,2022-06-14T05:55:00Z,28.2425,-88.8270,17.7,28.0,11111222
Murphy,ioos:station:wmo:42925:1,2022-06-14T06:05:00Z,28.2425,-88.8270,17.7,27.9,11111222
Murphy,ioos:station:wmo:42925:1,2022-06-14T06:15:00Z,28.2425,-88.8270,17.7,27.9,11111222
Murphy,ioos:station:wmo:42925:1,2022-06-14T06:25:00Z,28.2425,-88.8270,17.7,27.8,11111222
Murphy,ioos:station:wmo:42925:1,2022-06-14T06:35:00Z,28.2425,-88.8270,17.7,27.9,11111222
Murphy,ioos:station:wmo:42925:1,2022-06-14T06:45:00Z,28.2425,-88.8270,17.7,27.9,11111222
Murphy,ioos:station:wmo:42925:1,2022-06-14T06:55:00Z,28.2425,-88.8270,17.7,28.0,11111222
Murphy,ioos:station:wmo:42925:1,2022-06-14T07:05:00Z,28.2425,-88.8270,17.7,28.0,11111222
Murphy,ioos:station:wmo:42925:1,2022-06-14T07:25:00Z,28.2425,-88.8270,17.7,28.0,11111222
Murphy,ioos:station:wmo:42925:1,2022-06-14T07:35:00Z,28.2425,-88.8270,17.7,28.0,11111222
Murphy,ioos:station:wmo:42925:1,2022-06-14T07:45:00Z,28.2425,-88.8270,17.7,27.9,11111222
Murphy,ioos:station:wmo:42925:1,2022-06-14T07:55:00Z,28.2425,-88.8270,17.7,27.9,11111222
Murphy,ioos:station:wmo:42925:1,2022-06-14T08:05:00Z,28.2425,-88.8270,17.7,27.9,11111222
Murphy,ioos:station:wmo:42925:1,2022-06-14T08:15:00Z,28.2425,-88.8270,17.6,27.9,11111222
Murphy,ioos:station:wmo:42925:1,2022-06-14T08:25:00Z,28.2425,-88.8270,17.6,28.0,11111222
Murphy,ioos:station:wmo:42925:1,2022-06-14T08:35:00Z,28.2425,-88.8270,17.6,27.9,11111222
Murphy,ioos:station:wmo:42925:1,2022-06-14T08:45:00Z,28.2425,-88.8270,17.6,28.0,11111222
Murphy,ioos:station:wmo:42925:1,2022-06-14T09:14:00Z,28.2425,-88.8270,17.6,28.0,11111222
Murphy,ioos:station:wmo:42925:1,2022-06-14T09:24:00Z,28.2425,-88.8270,17.7,28.0,11111222
Murphy,ioos:station:wmo:42925:1,2022-06-14T09:34:00Z,28.2425,-88.8270,17.7,28.0,11111222
Murphy,ioos:station:wmo:42925:1,2022-06-14T09:44:00Z,28.2425,-88.8270,17.7,27.9,11111222
Murphy,ioos:station:wmo:42925:1,2022-06-14T09:54:00Z,28.2425,-88.8270,17.7,27.9,11111222
Murphy,ioos:station:wmo:42925:1,2022-06-14T10:04:00Z,28.2425,-88.8270,17.7,27.9,11111222
Murphy,ioos:station:wmo:42925:1,2022-06-14T10:14:00Z,28.2425,-88.8270,17.7,27.9,11111222
Murphy,ioos:station:wmo:42925:1,2022-06-14T10:24:00Z,28.2425,-88.8270,17.7,27.9,11111222
Murphy,ioos:station:wmo:42925:1,2022-06-14T10:34:00Z,28.2425,-88.8270,17.7,28.0,11111222
Murphy,ioos:station:wmo:42925:1,2022-06-14T10:44:00Z,28.2425,-88.8270,17.7,28.0,11111222
Murphy,ioos:station:wmo:42925:1,2022-06-14T10:54:00Z,28.2425,-88.8270,17.8,28.0,11111222
Murphy,ioos:station:wmo:42925:1,2022-06-14T11:04:00Z,28.2425,-88.8270,17.8,27.9,11111222
Murphy,ioos:station:wmo:42925:1,2022-06-14T11:14:00Z,28.2425,-88.8270,17.8,27.9,11111222
Murphy,ioos:station:wmo:42925:1,2022-06-14T11:24:00Z,28.2425,-88.8270,17.8,27.9,11111222
Murphy,ioos:station:wmo:42925:1,2022-06-14T11:34:00Z,28.2425,-88.8270,17.9,27.9,11111222
Murphy,ioos:station:wmo:42925:1,2022-06-14T11:44:00Z,28.2425,-88.8270,17.9,27.9,11111222
Murphy,ioos:station:wmo:42925:1,2022-06-14T11:54:00Z,28.2425,-88.8270,17.9,27.9,11111222
Murphy,ioos:station:wmo:42925:1,2022-06-14T12:13:00Z,28.2425,-88.8270,17.9,27.9,11111222
Murphy,ioos:station:wmo:42925:1,2022-06-14T12:23:00Z,28.2425,-88.8270,17.9,27.9,11111222
Murphy,ioos:station:wmo:42925:1,2022-06-14T12:33:00Z,28.2425,-88.8270,17.9,27.8,11111222
Murphy,ioos:station:wmo:42925:1,2022-06-14T12:43:00Z,28.2425,-88.8270,17.9,27.8,11111222
Murphy,ioos:station:wmo:42925:1,2022-06-14T12:53:00Z,28.2425,-88.8270,17.9,27.7,11111222
Murphy,ioos:station:wmo:42925:1,2022-06-14T13:03:00Z,28.2425,-88.8270,17.9,27.9,11111222
Murphy,ioos:station:wmo:42925:1,2022-06-14T13:13:00Z,28.2425,-88.8270,18.0,27.9,11111222
Murphy,ioos:station:wmo:42925:1,2022-06-14T13:23:00Z,28.2425,-88.8270,18.0,27.8,11111222
Murphy,ioos:station:wmo:42925:1,2022-06-14T13:33:00Z,28.2425,-88.8270,18.0,27.6,11111222
Murphy,ioos:station:wmo:42925:1,2022-06-14T13:43:00Z,28.2425,-88.8270,18.0,27.7,11111222
Murphy,ioos:station:wmo:42925:1,2022-06-14T13:53:00Z,28.2425,-88.8270,17.9,27.7,11111222
Murphy,ioos:station:wmo:42925:1,2022-06-14T14:03:00Z,28.2425,-88.8270,17.9,27.8,11111222
Murphy,ioos:station:wmo:42925:1,2022-06-14T14:13:00Z,28.2425,-88.8270,17.9,27.7,11111222
Murphy,ioos:station:wmo:42925:1,2022-06-14T14:23:00Z,28.2425,-88.8270,18.0,27.8,11111222
Murphy,ioos:station:wmo:42925:1,2022-06-14T14:33:00Z,28.2425,-88.8270,17.7,27.7,11111222
Murphy,ioos:station:wmo:42925:1,2022-06-14T14:43:00Z,28.2425,-88.8270,17.8,27.7,11111222
Murphy,ioos:station:wmo:42925:1,2022-06-14T14:53:00Z,28.2425,-88.8270,17.9,27.8,11111222
Murphy,ioos:station:wmo:42925:1,2022-06-14T15:03:00Z,28.2425,-88.8270,17.8,27.8,11111222
Murphy,ioos:station:wmo:42925:1,2022-06-14T15:13:00Z,28.2425,-88.8270,17.7,27.8,11111222
Murphy,ioos:station:wmo:42925:1,2022-06-14T15:23:00Z,28.2425,-88.8270,17.7,27.7,11111222
Murphy,ioos:station:wmo:42925:1,2022-06-14T15:33:00Z,28.2425,-88.8270,17.7,27.7,11111222
Murphy,ioos:station:wmo:42925:1,2022-06-14T15:43:00Z,28.2425,-88.8270,17.7,27.8,11111222
Murphy,ioos:station:wmo:42925:1,2022-06-14T15:53:00Z,28.2425,-88.8270,17.7,27.8,11111222
Murphy,ioos:station:wmo:42925:1,2022-06-14T16:04:00Z,28.2425,-88.8270,17.7,27.7,11111222
Murphy,ioos:station:wmo:42925:1,2022-06-14T16:14:00Z,28.2425,-88.8270,17.7,27.7,11111222
Murphy,ioos:station:wmo:42925:1,2022-06-14T16:24:00Z,28.2425,-88.8270,17.7,27.8,11111222
Murphy,ioos:station:wmo:42925:1,2022-06-14T16:34:00Z,28.2425,-88.8270,17.7,27.8,11111222
Murphy,ioos:station:wmo:42925:1,2022-06-14T16:44:00Z,28.2425,-88.8270,17.8,27.7,11111222
Murphy,ioos:station:wmo:42925:1,2022-06-14T16:54:00Z,28.2425,-88.8270,17.9,27.8,11111222
Murphy,ioos:station:wmo:42925:1,2022-06-14T17:04:00Z,28.2425,-88.8270,17.8,27.8,11111222
Murphy,ioos:station:wmo:42925:1,2022-06-14T17:14:00Z,28.2425,-88.8270,17.8,27.8,11111222
Murphy,ioos:station:wmo:42925:1,2022-06-14T17:24:00Z,28.2425,-88.8270,17.8,27.8,11111222
Murphy,ioos:station:wmo:42925:1,2022-06-14T17:34:00Z,28.2425,-88.8270,17.8,27.8,11111222
Murphy,ioos:station:wmo:42925:1,2022-06-14T17:44:00Z,28.2425,-88.8270,17.9,27.9,11111222
Murphy,ioos:station:wmo:42925:1,2022-06-14T17:54:00Z,28.2425,-88.8270,17.9,27.8,11111222
Murphy,ioos:station:wmo:42925:1,2022-06-14T18:04:00Z,28.2425,-88.8270,17.9,27.7,11111222
Murphy,ioos:station:wmo:42925:1,2022-06-14T18:14:00Z,28.2425,-88.8270,17.9,27.7,11111222
Murphy,ioos:station:wmo:42925:1,2022-06-14T18:24:00Z,28.2425,-88.8270,17.8,27.8,11111222
Murphy,ioos:station:wmo:42925:1,2022-06-14T18:34:00Z,28.2425,-88.8270,17.8,27.8,11111222
Murphy,ioos:station:wmo:42925:1,2022-06-14T18:44:00Z,28.2425,-88.8270,17.7,27.6,11111222
Murphy,ioos:station:wmo:42925:1,2022-06-15T04:53:00Z,28.2425,-88.8270,17.5,28.3,11111222
Murphy,ioos:station:wmo:42925:1,2022-06-15T05:03:00Z,28.2425,-88.8270,17.5,28.3,11111222
Murphy,ioos:station:wmo:42925:1,2022-06-15T05:13:00Z,28.2425,-88.8270,17.5,28.2,11111222
Murphy,ioos:station:wmo:42925:1,2022-06-15T05:23:00Z,28.2425,-88.8270,17.5,28.3,11111222
Murphy,ioos:station:wmo:42925:1,2022-06-15T05:33:00Z,28.2425,-88.8270,17.5,28.3,11111222
Murphy,ioos:station:wmo:42925:1,2022-06-15T05:43:00Z,28.2425,-88.8270,17.5,28.2,11111222
Murphy,ioos:station:wmo:42925:1,2022-06-15T05:53:00Z,28.2425,-88.8270,17.5,28.2,11111222
Murphy,ioos:station:wmo:42925:1,2022-06-15T06:03:00Z,28.2425,-88.8270,17.5,28.2,11111222
Murphy,ioos:station:wmo:42925:1,2022-06-15T06:13:00Z,28.2425,-88.8270,17.5,28.1,11111222
Murphy,ioos:station:wmo:42925:1,2022-06-15T06:23:00Z,28.2425,-88.8270,17.6,28.1,11111222
Murphy,ioos:station:wmo:42925:1,2022-06-15T06:33:00Z,28.2425,-88.8270,17.6,28.1,11111222
Murphy,ioos:station:wmo:42925:1,2022-06-15T06:43:00Z,28.2425,-88.8270,17.6,28.0,11111222
Murphy,ioos:station:wmo:42925:1,2022-06-15T06:53:00Z,28.2425,-88.8270,17.6,28.0,11111222
Murphy,ioos:station:wmo:42925:1,2022-06-15T07:03:00Z,28.2425,-88.8270,17.6,27.9,11111222
Murphy,ioos:station:wmo:42925:1,2022-06-15T07:13:00Z,28.2425,-88.8270,17.6,28.0,11111222
Murphy,ioos:station:wmo:42925:1,2022-06-15T07:23:00Z,28.2425,-88.8270,17.6,28.0,11111222
Murphy,ioos:station:wmo:42925:1,2022-06-15T07:33:00Z,28.2425,-88.8270,17.6,28.1,11111222
Murphy,ioos:station:wmo:42925:1,2022-06-15T07:43:00Z,28.2425,-88.8270,17.6,28.0,11111222
Murphy,ioos:station:wmo:42925:1,2022-06-15T07:53:00Z,28.2425,-88.8270,17.6,28.0,11111222
Murphy,ioos:station:wmo:42925:1,2022-06-15T08:03:00Z,28.2425,-88.8270,17.6,28.1,11111222
Murphy,ioos:station:wmo:42925:1,2022-06-15T08:33:00Z,28.2425,-88.8270,17.5,27.9,11111222
Murphy,ioos:station:wmo:42925:1,2022-06-15T08:44:00Z,28.2425,-88.8270,17.5,28.0,11111222
Murphy,ioos:station:wmo:42925:1,2022-06-15T08:54:00Z,28.2425,-88.8270,17.5,28.0,11111222
Murphy,ioos:station:wmo:42925:1,2022-06-15T09:04:00Z,28.2425,-88.8270,17.5,28.0,11111222
Murphy,ioos:station:wmo:42925:1,2022-06-15T09:14:00Z,28.2425,-88.8270,17.6,28.1,11111222
Murphy,ioos:station:wmo:42925:1,2022-06-15T09:24:00Z,28.2425,-88.8270,17.6,28.1,11111222
Murphy,ioos:station:wmo:42925:1,2022-06-15T09:34:00Z,28.2425,-88.8270,17.6,28.1,11111222
Murphy,ioos:station:wmo:42925:1,2022-06-15T09:44:00Z,28.2425,-88.8270,17.6,28.1,11111222
Murphy,ioos:station:wmo:42925:1,2022-06-15T09:54:00Z,28.2425,-88.8270,17.6,28.0,11111222